Location: Newark
(35.5300°N, 14.3000°E)
Time: 17:29:10
(UTC+00:00)

Envisat - Visible Passes

Search period start: 20 October 2019 00:00
Search period end: 30 October 2019 00:00
Orbit: 764 x 766 km, 98.1° (Epoch: 20 October)

Date Brightness Start Highest point End Pass type
(mag) Time Alt. Az. Time Alt. Az. Time Alt. Az.
20 Oct 6.5 04:40:17 10° ENE 04:42:36 13° E 04:44:56 10° ESE visible
20 Oct 3.5 17:28:17 10° S 17:33:18 62° W 17:38:21 10° NNW visible
21 Oct 3.1 16:51:39 10° SSE 16:56:36 56° ENE 17:01:33 10° N visible
21 Oct 6.0 18:33:17 10° WSW 18:35:55 14° W 18:38:33 10° WNW visible
22 Oct 4.7 17:54:19 10° SSW 17:58:53 33° W 18:03:28 10° NNW visible
23 Oct 3.1 17:16:58 10° S 17:22:02 81° WSW 17:27:08 10° NNW visible
24 Oct 3.3 16:40:37 10° SE 16:45:23 43° ENE 16:50:10 10° N visible
24 Oct 5.7 18:21:05 10° SW 18:24:33 18° W 18:28:02 10° NW visible
25 Oct 4.2 17:42:46 10° S 17:47:34 43° W 17:52:24 10° NNW visible
26 Oct 2.9 17:05:43 10° SSE 17:10:47 79° ENE 17:15:53 10° N visible
27 Oct 3.6 16:29:40 10° SE 16:34:11 34° ENE 16:38:43 10° N visible
27 Oct 5.3 18:09:10 10° SSW 18:13:12 24° W 18:17:15 10° NW visible
28 Oct 6.3 04:42:51 10° ENE 04:45:37 15° E 04:48:22 10° SE visible
28 Oct 3.7 17:31:19 10° S 17:36:17 56° W 17:41:17 10° NNW visible
29 Oct 3.0 16:54:33 10° SSE 16:59:33 61° ENE 17:04:34 10° N visible
29 Oct 6.1 18:36:45 10° WSW 18:38:55 13° W 18:41:06 10° WNW visible
